| time (UTC) | temp C | wind direction | speed KPH | gust KPH | rain 1hr cm | rain 24hr cm | rain mn cm | humidity % | barometer mb |
| 20260509205112 | 26 | 229 | 1.6 | 4.8 | 0.00 | 0.00 | 0.00 | 55 | 1008.5 |
| 20260509204610 | 26 | 280 | 1.6 | 6.4 | 0.00 | 0.00 | 0.00 | 57 | 1008.1 |
| 20260509204109 | 26 | 227 | 1.6 | 9.7 | 0.00 | 0.00 | 0.00 | 53 | 1008.1 |
| 20260509203536 | 26 | 269 | 0.0 | 9.7 | 0.00 | 0.00 | 0.00 | 54 | 1008.1 |
| 20260509203034 | 26 | 222 | 1.6 | 9.7 | 0.00 | 0.00 | 0.00 | 54 | 1008.5 |
| 20260509202502 | 26 | 176 | 3.2 | 9.7 | 0.00 | 0.00 | 0.00 | 54 | 1008.8 |
| 20260509201857 | 26 | 186 | 3.2 | 8.0 | 0.00 | 0.00 | 0.00 | 54 | 1008.8 |
| 20260509201356 | 25 | 168 | 3.2 | 8.0 | 0.00 | 0.00 | 0.00 | 55 | 1008.8 |
| 20260509200854 | 25 | 183 | 3.2 | 8.0 | 0.00 | 0.00 | 0.00 | 56 | 1008.8 |
| 20260509200353 | 25 | 224 | 3.2 | 6.4 | 0.00 | 0.00 | 0.00 | 57 | 1008.8 |
| 20260509195852 | 25 | 134 | 1.6 | 6.4 | 0.00 | 0.00 | 0.00 | 55 | 1008.8 |
| 20260509195351 | 25 | 300 | 1.6 | 6.4 | 0.00 | 0.00 | 0.00 | 54 | 1009.1 |
| 20260509194850 | 26 | 302 | 1.6 | 6.4 | 0.00 | 0.00 | 0.00 | 54 | 1009.1 |
| 20260509194348 | 25 | 301 | 1.6 | 6.4 | 0.00 | 0.00 | 0.00 | 55 | 1009.1 |
| 20260509193847 | 25 | 197 | 1.6 | 6.4 | 0.00 | 0.00 | 0.00 | 54 | 1009.1 |
| 20260509193345 | 25 | 278 | 1.6 | 6.4 | 0.00 | 0.00 | 0.00 | 56 | 1009.1 |
| 20260509192844 | 25 | 180 | 3.2 | 6.4 | 0.00 | 0.00 | 0.00 | 56 | 1009.1 |
| 20260509192342 | 25 | 274 | 3.2 | 6.4 | 0.00 | 0.00 | 0.00 | 54 | 1009.1 |
| 20260509191738 | 25 | 281 | 1.6 | 4.8 | 0.00 | 0.00 | 0.00 | 56 | 1009.1 |
| 20260509191205 | 25 | 326 | 1.6 | 6.4 | 0.00 | 0.00 | 0.00 | 59 | 1009.1 |
| 20260509190704 | 25 | 72 | 0.0 | 6.4 | 0.00 | 0.00 | 0.00 | 58 | 1009.5 |
| 20260509190202 | 25 | 98 | 1.6 | 6.4 | 0.00 | 0.00 | 0.00 | 57 | 1009.5 |
| 20260509185701 | 24 | 172 | 3.2 | 6.4 | 0.00 | 0.00 | 0.00 | 58 | 1009.5 |
| 20260509185127 | 24 | 190 | 3.2 | 14.5 | 0.00 | 0.00 | 0.00 | 61 | 1009.5 |
| 20260509184626 | 24 | 197 | 1.6 | 14.5 | 0.00 | 0.00 | 0.00 | 61 | 1009.1 |
| 20260509184123 | 24 | 311 | 1.6 | 14.5 | 0.00 | 0.00 | 0.00 | 61 | 1009.5 |
| 20260509183618 | 24 | 208 | 3.2 | 14.5 | 0.00 | 0.00 | 0.00 | 59 | 1009.5 |
| 20260509183117 | 24 | 235 | 6.4 | 12.9 | 0.00 | 0.00 | 0.00 | 58 | 1009.1 |
| 20260509182615 | 24 | 255 | 1.6 | 14.5 | 0.00 | 0.00 | 0.00 | 60 | 1009.1 |
| 20260509182042 | 23 | 312 | 3.2 | 16.1 | 0.00 | 0.00 | 0.00 | 62 | 1009.1 |
| 20260509181539 | 23 | 225 | 4.8 | 16.1 | 0.00 | 0.00 | 0.00 | 59 | 1009.1 |
| 20260509181038 | 23 | 227 | 3.2 | 6.4 | 0.00 | 0.00 | 0.00 | 61 | 1009.1 |
| 20260509180536 | 23 | 206 | 1.6 | 6.4 | 0.00 | 0.00 | 0.00 | 63 | 1009.5 |
| 20260509180035 | 23 | 75 | 1.6 | 6.4 | 0.00 | 0.00 | 0.00 | 59 | 1009.5 |
| 20260509175501 | 23 | 89 | 3.2 | 8.0 | 0.00 | 0.00 | 0.00 | 62 | 1009.5 |
| 20260509174959 | 23 | 65 | 3.2 | 8.0 | 0.00 | 0.00 | 0.00 | 61 | 1009.5 |
| 20260509174458 | 23 | 131 | 3.2 | 8.0 | 0.00 | 0.00 | 0.00 | 60 | 1009.5 |
| 20260509173925 | 23 | 184 | 4.8 | 8.0 | 0.00 | 0.00 | 0.00 | 61 | 1009.5 |
| 20260509173423 | 22 | 301 | 1.6 | 9.7 | 0.00 | 0.00 | 0.00 | 64 | 1009.8 |
| 20260509172921 | 22 | 325 | 1.6 | 12.9 | 0.00 | 0.00 | 0.00 | 62 | 1009.5 |
| 20260509172419 | 22 | 11 | 1.6 | 12.9 | 0.00 | 0.00 | 0.00 | 63 | 1009.5 |
| 20260509171845 | 22 | 245 | 4.8 | 14.5 | 0.00 | 0.00 | 0.00 | 62 | 1009.8 |
| 20260509171344 | 22 | 232 | 4.8 | 14.5 | 0.00 | 0.00 | 0.00 | 62 | 1009.8 |
| 20260509170841 | 22 | 203 | 3.2 | 14.5 | 0.00 | 0.00 | 0.00 | 62 | 1009.8 |
| 20260509170339 | 22 | 207 | 6.4 | 14.5 | 0.00 | 0.00 | 0.00 | 62 | 1009.8 |
| 20260509165837 | 22 | 68 | 1.6 | 16.1 | 0.00 | 0.00 | 0.00 | 66 | 1009.8 |
| 20260509165336 | 22 | 262 | 4.8 | 16.1 | 0.00 | 0.00 | 0.00 | 62 | 1010.2 |
| 20260509164803 | 22 | 171 | 3.2 | 12.9 | 0.00 | 0.00 | 0.00 | 64 | 1010.2 |
| 20260509164230 | 21 | 317 | 1.6 | 11.3 | 0.00 | 0.00 | 0.00 | 70 | 1010.2 |
| 20260509163728 | 21 | 166 | 3.2 | 11.3 | 0.00 | 0.00 | 0.00 | 68 | 1010.2 |
| 20260509163155 | 21 | 56 | 4.8 | 11.3 | 0.00 | 0.00 | 0.00 | 65 | 1010.5 |
| 20260509162623 | 21 | 235 | 4.8 | 11.3 | 0.00 | 0.00 | 0.00 | 65 | 1010.2 |
| 20260509162122 | 21 | 197 | 3.2 | 11.3 | 0.00 | 0.00 | 0.00 | 65 | 1010.5 |
| 20260509161445 | 21 | 230 | 6.4 | 11.3 | 0.00 | 0.00 | 0.00 | 66 | 1010.5 |
| 20260509160944 | 21 | 295 | 1.6 | 9.7 | 0.00 | 0.00 | 0.00 | 67 | 1010.5 |
| 20260509160443 | 21 | 213 | 3.2 | 9.7 | 0.00 | 0.00 | 0.00 | 68 | 1010.5 |
| 20260509155941 | 20 | 286 | 3.2 | 11.3 | 0.00 | 0.00 | 0.00 | 69 | 1010.5 |
| 20260509155408 | 20 | 197 | 3.2 | 11.3 | 0.00 | 0.00 | 0.00 | 71 | 1010.5 |
| 20260509154835 | 20 | 224 | 1.6 | 11.3 | 0.00 | 0.00 | 0.00 | 70 | 1010.5 |
| 20260509154300 | 20 | 248 | 4.8 | 11.3 | 0.00 | 0.00 | 0.00 | 71 | 1010.5 |
| 20260509153759 | 20 | 221 | 4.8 | 11.3 | 0.00 | 0.00 | 0.00 | 72 | 1010.5 |
| 20260509153257 | 19 | 226 | 3.2 | 6.4 | 0.00 | 0.00 | 0.00 | 75 | 1010.5 |
| 20260509152755 | 19 | 226 | 3.2 | 8.0 | 0.00 | 0.00 | 0.00 | 73 | 1010.5 |
| 20260509152253 | 19 | 233 | 1.6 | 9.7 | 0.00 | 0.00 | 0.00 | 74 | 1010.5 |
| 20260509151752 | 19 | 175 | 1.6 | 9.7 | 0.00 | 0.00 | 0.00 | 74 | 1010.5 |
| 20260509151250 | 18 | 91 | 3.2 | 11.3 | 0.00 | 0.00 | 0.00 | 75 | 1010.5 |
| 20260509150749 | 18 | 233 | 6.4 | 12.9 | 0.00 | 0.00 | 0.00 | 73 | 1010.5 |
| 20260509150248 | 18 | 143 | 3.2 | 14.5 | 0.00 | 0.00 | 0.00 | 74 | 1010.5 |
| 20260509145745 | 18 | 244 | 4.8 | 14.5 | 0.00 | 0.00 | 0.00 | 77 | 1010.8 |
| 20260509145244 | 18 | 213 | 3.2 | 9.7 | 0.00 | 0.00 | 0.00 | 75 | 1010.8 |
| 20260509144743 | 18 | 127 | 3.2 | 9.7 | 0.00 | 0.00 | 0.00 | 75 | 1010.8 |
| 20260509144241 | 18 | 89 | 3.2 | 11.3 | 0.00 | 0.00 | 0.00 | 76 | 1010.5 |
| 20260509143739 | 18 | 261 | 1.6 | 11.3 | 0.00 | 0.00 | 0.00 | 76 | 1010.5 |
| 20260509143236 | 18 | 234 | 3.2 | 8.0 | 0.00 | 0.00 | 0.00 | 76 | 1010.5 |
| 20260509142733 | 18 | 213 | 3.2 | 8.0 | 0.00 | 0.00 | 0.00 | 76 | 1010.5 |
| 20260509142232 | 18 | 255 | 3.2 | 8.0 | 0.00 | 0.00 | 0.00 | 76 | 1010.5 |
| 20260509141731 | 18 | 207 | 4.8 | 9.7 | 0.00 | 0.00 | 0.00 | 74 | 1010.5 |
| 20260509141229 | 17 | 200 | 3.2 | 9.7 | 0.00 | 0.00 | 0.00 | 78 | 1010.5 |
| 20260509140727 | 17 | 218 | 3.2 | 9.7 | 0.00 | 0.00 | 0.00 | 79 | 1010.5 |
| 20260509140226 | 17 | 223 | 3.2 | 11.3 | 0.00 | 0.00 | 0.00 | 79 | 1010.5 |
| 20260509135725 | 17 | 233 | 3.2 | 11.3 | 0.00 | 0.00 | 0.00 | 79 | 1010.5 |
| 20260509135224 | 17 | 238 | 4.8 | 9.7 | 0.00 | 0.00 | 0.00 | 80 | 1010.2 |
| 20260509134721 | 17 | 223 | 4.8 | 9.7 | 0.00 | 0.00 | 0.00 | 80 | 1010.2 |
| 20260509134220 | 17 | 214 | 4.8 | 11.3 | 0.00 | 0.00 | 0.00 | 80 | 1010.2 |
| 20260509133717 | 16 | 219 | 3.2 | 11.3 | 0.00 | 0.00 | 0.00 | 81 | 1010.2 |
| 20260509133216 | 16 | 201 | 3.2 | 9.7 | 0.00 | 0.00 | 0.00 | 83 | 1010.2 |
| 20260509132715 | 16 | 230 | 3.2 | 4.8 | 0.00 | 0.00 | 0.00 | 84 | 1010.2 |
| 20260509132212 | 15 | 193 | 1.6 | 6.4 | 0.00 | 0.00 | 0.00 | 88 | 1010.2 |
| 20260509131709 | 15 | 94 | 3.2 | 6.4 | 0.00 | 0.00 | 0.00 | 89 | 1010.2 |
| 20260509131208 | 14 | 252 | 3.2 | 4.8 | 0.00 | 0.00 | 0.00 | 91 | 1010.2 |
| 20260509130705 | 13 | 259 | 1.6 | 1.6 | 0.00 | 0.00 | 0.00 | 92 | 1010.5 |
| 20260509130203 | 13 | 262 | 1.6 | 1.6 | 0.00 | 0.00 | 0.00 | 93 | 1010.8 |
| 20260509125702 | 13 | 167 | 0.0 | 1.6 | 0.00 | 0.00 | 0.00 | 94 | 1010.8 |
| 20260509125200 | 12 | 195 | 0.0 | 1.6 | 0.00 | 0.00 | 0.00 | 94 | 1011.2 |
| 20260509124659 | 12 | 194 | 0.0 | 1.6 | 0.00 | 0.00 | 0.00 | 95 | 1010.8 |
| 20260509124125 | 12 | 196 | 0.0 | 1.6 | 0.00 | 0.00 | 0.00 | 95 | 1010.8 |
| 20260509123550 | 12 | 131 | 0.0 | 1.6 | 0.00 | 0.00 | 0.00 | 95 | 1010.8 |
| 20260509123049 | 12 | 131 | 0.0 | 1.6 | 0.00 | 0.00 | 0.00 | 95 | 1010.5 |
| 20260509122548 | 12 | 131 | 0.0 | 0.0 | 0.00 | 0.00 | 0.00 | 95 | 1010.8 |
| 20260509122045 | 12 | 131 | 0.0 | 0.0 | 0.00 | 0.00 | 0.00 | 95 | 1010.8 |
| 20260509121544 | 12 | 131 | 0.0 | 0.0 | 0.00 | 0.00 | 0.00 | 95 | 1010.8 |
| 20260509121042 | 11 | 131 | 0.0 | 0.0 | 0.00 | 0.00 | 0.00 | 95 | 1010.8 |
| 20260509120541 | 11 | 131 | 0.0 | 0.0 | 0.00 | 0.00 | 0.00 | 95 | 1010.8 |
| 20260509120040 | 11 | 131 | 0.0 | 1.6 | 0.00 | 0.00 | 0.00 | 95 | 1010.8 |
| 20260509115538 | 11 | 131 | 0.0 | 1.6 | 0.00 | 0.00 | 0.00 | 95 | 1011.2 |
| 20260509115037 | 11 | 131 | 0.0 | 1.6 | 0.00 | 0.00 | 0.00 | 95 | 1010.8 |
| 20260509114535 | 11 | 131 | 1.6 | 1.6 | 0.00 | 0.00 | 0.00 | 95 | 1010.8 |
| 20260509114034 | 11 | 131 | 0.0 | 1.6 | 0.00 | 0.00 | 0.00 | 95 | 1010.8 |
| 20260509113501 | 11 | 131 | 0.0 | 0.0 | 0.00 | 0.00 | 0.00 | 95 | 1010.5 |
| 20260509113000 | 11 | 131 | 0.0 | 0.0 | 0.00 | 0.00 | 0.00 | 95 | 1010.5 |
| 20260509112458 | 11 | 131 | 0.0 | 0.0 | 0.00 | 0.00 | 0.00 | 95 | 1010.5 |
| 20260509111956 | 11 | 131 | 0.0 | 0.0 | 0.00 | 0.00 | 0.00 | 95 | 1010.5 |
| 20260509111454 | 11 | 131 | 0.0 | 0.0 | 0.00 | 0.00 | 0.00 | 95 | 1010.2 |
| 20260509110953 | 11 | 131 | 0.0 | 0.0 | 0.00 | 0.00 | 0.00 | 95 | 1010.2 |
| 20260509110452 | 11 | 131 | 0.0 | 0.0 | 0.00 | 0.00 | 0.00 | 95 | 1010.2 |
| 20260509105848 | 11 | 131 | 0.0 | 0.0 | 0.00 | 0.00 | 0.00 | 95 | 1010.2 |
| 20260509105345 | 11 | 131 | 0.0 | 0.0 | 0.00 | 0.00 | 0.00 | 95 | 1010.2 |
| 20260509104844 | 11 | 131 | 0.0 | 0.0 | 0.00 | 0.00 | 0.00 | 95 | 1010.2 |
| 20260509104311 | 11 | 131 | 0.0 | 1.6 | 0.00 | 0.00 | 0.00 | 95 | 1010.2 |
| 20260509103738 | 11 | 131 | 0.0 | 1.6 | 0.00 | 0.00 | 0.00 | 95 | 1010.2 |
| 20260509103235 | 11 | 131 | 0.0 | 1.6 | 0.00 | 0.00 | 0.00 | 95 | 1010.5 |
| 20260509102702 | 11 | 158 | 0.0 | 0.0 | 0.00 | 0.00 | 0.00 | 95 | 1010.5 |
| 20260509102200 | 11 | 158 | 0.0 | 0.0 | 0.00 | 0.00 | 0.00 | 95 | 1010.5 |
| 20260509101628 | 10 | 158 | 0.0 | 0.0 | 0.00 | 0.00 | 0.00 | 95 | 1010.5 |
| 20260509101127 | 10 | 158 | 0.0 | 0.0 | 0.00 | 0.00 | 0.00 | 95 | 1010.8 |
| 20260509100625 | 10 | 158 | 0.0 | 0.0 | 0.00 | 0.00 | 0.00 | 95 | 1010.8 |
| 20260509100124 | 10 | 158 | 0.0 | 1.6 | 0.00 | 0.00 | 0.00 | 95 | 1010.8 |
| 20260509095552 | 10 | 158 | 0.0 | 1.6 | 0.00 | 0.00 | 0.00 | 95 | 1010.5 |
| 20260509095050 | 10 | 158 | 0.0 | 1.6 | 0.00 | 0.00 | 0.00 | 95 | 1010.5 |
| 20260509094549 | 10 | 158 | 0.0 | 1.6 | 0.00 | 0.00 | 0.00 | 95 | 1010.5 |
| 20260509094047 | 10 | 158 | 0.0 | 1.6 | 0.00 | 0.00 | 0.00 | 95 | 1010.5 |
| 20260509093546 | 10 | 158 | 0.0 | 0.0 | 0.00 | 0.00 | 0.00 | 95 | 1010.8 |
| 20260509093044 | 10 | 158 | 0.0 | 0.0 | 0.00 | 0.00 | 0.00 | 95 | 1010.8 |
| 20260509092543 | 10 | 158 | 0.0 | 0.0 | 0.00 | 0.00 | 0.00 | 95 | 1010.5 |
| 20260509092011 | 10 | 158 | 0.0 | 1.6 | 0.00 | 0.00 | 0.00 | 95 | 1010.5 |
| 20260509091509 | 9 | 158 | 0.0 | 1.6 | 0.00 | 0.00 | 0.00 | 95 | 1010.2 |
| 20260509091008 | 9 | 158 | 0.0 | 1.6 | 0.00 | 0.00 | 0.00 | 95 | 1010.2 |
| 20260509090506 | 9 | 158 | 0.0 | 1.6 | 0.00 | 0.00 | 0.00 | 95 | 1010.2 |
| 20260509085933 | 9 | 158 | 0.0 | 0.0 | 0.00 | 0.00 | 0.00 | 95 | 1010.5 |
| 20260509085432 | 8 | 158 | 0.0 | 0.0 | 0.00 | 0.00 | 0.00 | 95 | 1010.2 |
| 20260509084929 | 8 | 158 | 0.0 | 0.0 | 0.00 | 0.00 | 0.00 | 95 | 1010.2 |
| 20260509084428 | 8 | 158 | 0.0 | 0.0 | 0.00 | 0.00 | 0.00 | 95 | 1010.2 |
| 20260509083926 | 8 | 158 | 0.0 | 0.0 | 0.00 | 0.00 | 0.00 | 95 | 1010.2 |
| 20260509083250 | 8 | 158 | 0.0 | 0.0 | 0.00 | 0.00 | 0.00 | 95 | 1010.2 |
| 20260509082716 | 8 | 158 | 0.0 | 0.0 | 0.00 | 0.00 | 0.00 | 95 | 1010.2 |
| 20260509082215 | 8 | 158 | 0.0 | 0.0 | 0.00 | 0.00 | 0.00 | 95 | 1010.2 |
| 20260509081714 | 8 | 158 | 0.0 | 0.0 | 0.00 | 0.00 | 0.00 | 95 | 1010.2 |
| 20260509081212 | 8 | 158 | 0.0 | 0.0 | 0.00 | 0.00 | 0.00 | 95 | 1010.2 |
| 20260509080640 | 8 | 158 | 0.0 | 0.0 | 0.00 | 0.00 | 0.00 | 95 | 1010.2 |
| 20260509080139 | 8 | 158 | 0.0 | 0.0 | 0.00 | 0.00 | 0.00 | 95 | 1010.5 |
| 20260509075637 | 8 | 158 | 0.0 | 0.0 | 0.00 | 0.00 | 0.00 | 95 | 1010.5 |
| 20260509075135 | 8 | 157 | 0.0 | 0.0 | 0.00 | 0.00 | 0.00 | 95 | 1010.5 |
| 20260509074634 | 8 | 158 | 0.0 | 1.6 | 0.00 | 0.00 | 0.00 | 95 | 1010.2 |
| 20260509074100 | 8 | 158 | 0.0 | 1.6 | 0.00 | 0.00 | 0.00 | 95 | 1010.2 |
| 20260509073527 | 8 | 158 | 0.0 | 1.6 | 0.00 | 0.00 | 0.00 | 95 | 1010.5 |
| 20260509073025 | 8 | 158 | 0.0 | 1.6 | 0.00 | 0.00 | 0.00 | 95 | 1010.2 |
| 20260509072523 | 8 | 158 | 0.0 | 0.0 | 0.00 | 0.00 | 0.00 | 95 | 1010.2 |
| 20260509072022 | 8 | 158 | 0.0 | 0.0 | 0.00 | 0.00 | 0.00 | 95 | 1010.2 |
| 20260509071520 | 8 | 158 | 0.0 | 0.0 | 0.00 | 0.00 | 0.00 | 95 | 1010.5 |
| 20260509071018 | 8 | 158 | 0.0 | 0.0 | 0.00 | 0.00 | 0.00 | 95 | 1010.2 |
| 20260509070517 | 8 | 157 | 0.0 | 0.0 | 0.00 | 0.00 | 0.00 | 94 | 1010.2 |
| 20260509070015 | 8 | 158 | 0.0 | 0.0 | 0.00 | 0.00 | 0.00 | 94 | 1010.2 |
| 20260509065514 | 8 | 158 | 0.0 | 0.0 | 0.00 | 0.00 | 0.00 | 94 | 1010.2 |
| 20260509064941 | 8 | 158 | 0.0 | 0.0 | 0.00 | 0.00 | 0.00 | 94 | 1010.5 |
| 20260509064439 | 8 | 158 | 0.0 | 0.0 | 0.00 | 0.00 | 0.00 | 94 | 1010.5 |
| 20260509063938 | 8 | 158 | 0.0 | 0.0 | 0.00 | 0.00 | 0.00 | 94 | 1010.5 |
| 20260509063405 | 8 | 158 | 0.0 | 0.0 | 0.00 | 0.00 | 0.00 | 94 | 1010.5 |
| 20260509062903 | 8 | 158 | 0.0 | 0.0 | 0.00 | 0.00 | 0.00 | 94 | 1010.5 |
| 20260509062402 | 9 | 158 | 0.0 | 1.6 | 0.00 | 0.00 | 0.00 | 94 | 1010.5 |
| 20260509061901 | 9 | 158 | 0.0 | 1.6 | 0.00 | 0.00 | 0.00 | 93 | 1010.5 |
| 20260509061359 | 9 | 158 | 0.0 | 1.6 | 0.00 | 0.00 | 0.00 | 93 | 1010.5 |
| 20260509060826 | 9 | 158 | 0.0 | 1.6 | 0.00 | 0.00 | 0.00 | 94 | 1010.5 |
| 20260509060325 | 9 | 158 | 0.0 | 1.6 | 0.00 | 0.00 | 0.00 | 94 | 1010.5 |
| 20260509055752 | 9 | 158 | 1.6 | 1.6 | 0.00 | 0.00 | 0.00 | 94 | 1010.5 |
| 20260509055251 | 9 | 158 | 0.0 | 1.6 | 0.00 | 0.00 | 0.00 | 94 | 1010.8 |
| 20260509054750 | 9 | 158 | 1.6 | 1.6 | 0.00 | 0.00 | 0.00 | 94 | 1010.8 |
| 20260509054248 | 9 | 158 | 0.0 | 1.6 | 0.00 | 0.00 | 0.00 | 94 | 1010.8 |
| 20260509053747 | 9 | 158 | 0.0 | 1.6 | 0.00 | 0.00 | 0.00 | 93 | 1010.8 |
| 20260509053245 | 9 | 158 | 0.0 | 0.0 | 0.00 | 0.00 | 0.00 | 93 | 1011.2 |
| 20260509052744 | 9 | 158 | 0.0 | 0.0 | 0.00 | 0.00 | 0.00 | 93 | 1011.2 |
| 20260509052211 | 9 | 158 | 0.0 | 1.6 | 0.00 | 0.00 | 0.00 | 93 | 1011.2 |
| 20260509051638 | 9 | 158 | 0.0 | 1.6 | 0.00 | 0.00 | 0.00 | 93 | 1011.2 |
| 20260509051136 | 9 | 158 | 0.0 | 1.6 | 0.00 | 0.00 | 0.00 | 93 | 1011.2 |
| 20260509050635 | 9 | 158 | 0.0 | 1.6 | 0.00 | 0.00 | 0.00 | 93 | 1011.2 |
| 20260509050134 | 9 | 158 | 1.6 | 1.6 | 0.00 | 0.00 | 0.00 | 93 | 1011.5 |
| 20260509045632 | 9 | 158 | 1.6 | 1.6 | 0.00 | 0.00 | 0.00 | 93 | 1011.2 |
| 20260509045130 | 9 | 158 | 0.0 | 0.0 | 0.00 | 0.00 | 0.00 | 92 | 1011.2 |
| 20260509044628 | 9 | 158 | 0.0 | 0.0 | 0.00 | 0.00 | 0.00 | 92 | 1011.5 |
| 20260509044127 | 9 | 158 | 0.0 | 0.0 | 0.00 | 0.00 | 0.00 | 92 | 1011.5 |
| 20260509043626 | 9 | 158 | 0.0 | 0.0 | 0.00 | 0.00 | 0.00 | 91 | 1011.5 |
| 20260509043123 | 9 | 158 | 0.0 | 0.0 | 0.00 | 0.00 | 0.00 | 91 | 1011.5 |
| 20260509042621 | 10 | 158 | 0.0 | 0.0 | 0.00 | 0.00 | 0.00 | 91 | 1011.5 |
| 20260509042119 | 10 | 158 | 0.0 | 0.0 | 0.00 | 0.00 | 0.00 | 92 | 1011.5 |
| 20260509041618 | 10 | 158 | 0.0 | 0.0 | 0.00 | 0.00 | 0.00 | 91 | 1011.5 |
| 20260509041116 | 10 | 158 | 0.0 | 0.0 | 0.00 | 0.00 | 0.00 | 90 | 1011.5 |
| 20260509040615 | 10 | 158 | 0.0 | 0.0 | 0.00 | 0.00 | 0.00 | 90 | 1011.9 |
| 20260509040112 | 10 | 158 | 0.0 | 1.6 | 0.00 | 0.00 | 0.00 | 90 | 1011.9 |
| 20260509035611 | 10 | 158 | 0.0 | 1.6 | 0.00 | 0.00 | 0.00 | 90 | 1011.9 |
| 20260509035109 | 10 | 158 | 0.0 | 1.6 | 0.00 | 0.00 | 0.00 | 90 | 1011.9 |
| 20260509034608 | 10 | 158 | 0.0 | 1.6 | 0.00 | 0.00 | 0.00 | 89 | 1011.9 |
| 20260509034106 | 10 | 158 | 1.6 | 1.6 | 0.00 | 0.00 | 0.00 | 89 | 1011.9 |
| 20260509033606 | 10 | 158 | 1.6 | 1.6 | 0.00 | 0.00 | 0.00 | 89 | 1011.9 |
| 20260509033104 | 10 | 158 | 0.0 | 0.0 | 0.00 | 0.00 | 0.00 | 88 | 1011.9 |
| 20260509032501 | 10 | 158 | 0.0 | 0.0 | 0.00 | 0.00 | 0.00 | 87 | 1011.9 |
| 20260509031958 | 11 | 158 | 0.0 | 1.6 | 0.00 | 0.00 | 0.00 | 87 | 1011.9 |
| 20260509031457 | 11 | 158 | 0.0 | 1.6 | 0.00 | 0.00 | 0.00 | 87 | 1011.9 |
| 20260509030956 | 11 | 158 | 0.0 | 1.6 | 0.00 | 0.00 | 0.00 | 87 | 1011.9 |
| 20260509030453 | 11 | 158 | 0.0 | 1.6 | 0.00 | 0.00 | 0.00 | 87 | 1011.9 |
| 20260509025951 | 11 | 158 | 1.6 | 1.6 | 0.00 | 0.00 | 0.00 | 87 | 1011.9 |
| 20260509025448 | 11 | 158 | 1.6 | 1.6 | 0.00 | 0.00 | 0.00 | 87 | 1011.9 |
| 20260509024946 | 11 | 158 | 1.6 | 1.6 | 0.00 | 0.00 | 0.00 | 86 | 1011.9 |
| 20260509024445 | 11 | 158 | 1.6 | 1.6 | 0.00 | 0.00 | 0.00 | 86 | 1011.9 |
| 20260509023912 | 11 | 158 | 1.6 | 1.6 | 0.00 | 0.00 | 0.00 | 86 | 1011.5 |
| 20260509023410 | 11 | 158 | 0.0 | 1.6 | 0.00 | 0.00 | 0.00 | 85 | 1011.9 |
| 20260509022909 | 11 | 158 | 0.0 | 1.6 | 0.00 | 0.00 | 0.00 | 85 | 1011.9 |
| 20260509022407 | 12 | 158 | 1.6 | 1.6 | 0.00 | 0.00 | 0.00 | 84 | 1011.9 |
| 20260509021906 | 12 | 158 | 0.0 | 1.6 | 0.00 | 0.00 | 0.00 | 83 | 1011.9 |
| 20260509021405 | 12 | 158 | 1.6 | 1.6 | 0.00 | 0.00 | 0.00 | 83 | 1011.9 |
| 20260509020903 | 12 | 158 | 0.0 | 1.6 | 0.00 | 0.00 | 0.00 | 82 | 1011.9 |
| 20260509020402 | 12 | 158 | 1.6 | 1.6 | 0.00 | 0.00 | 0.00 | 82 | 1011.9 |
| 20260509015900 | 12 | 158 | 1.6 | 1.6 | 0.00 | 0.00 | 0.00 | 82 | 1011.5 |
| 20260509015359 | 12 | 158 | 1.6 | 1.6 | 0.00 | 0.00 | 0.00 | 82 | 1011.5 |
| 20260509014826 | 12 | 158 | 0.0 | 1.6 | 0.00 | 0.00 | 0.00 | 82 | 1011.5 |
| 20260509014325 | 12 | 158 | 0.0 | 1.6 | 0.00 | 0.00 | 0.00 | 82 | 1011.5 |
| 20260509013824 | 12 | 158 | 0.0 | 1.6 | 0.00 | 0.00 | 0.00 | 82 | 1011.5 |
| 20260509013322 | 12 | 158 | 0.0 | 1.6 | 0.00 | 0.00 | 0.00 | 82 | 1011.5 |
| 20260509012821 | 12 | 158 | 0.0 | 1.6 | 0.00 | 0.00 | 0.00 | 82 | 1011.5 |
| 20260509012320 | 13 | 158 | 0.0 | 1.6 | 0.00 | 0.00 | 0.00 | 82 | 1011.2 |
| 20260509011819 | 13 | 158 | 1.6 | 1.6 | 0.00 | 0.00 | 0.00 | 81 | 1011.2 |
| 20260509011318 | 13 | 158 | 1.6 | 1.6 | 0.00 | 0.00 | 0.00 | 81 | 1011.2 |
| 20260509010816 | 13 | 158 | 1.6 | 1.6 | 0.00 | 0.00 | 0.00 | 81 | 1011.2 |
| 20260509010315 | 13 | 159 | 1.6 | 1.6 | 0.00 | 0.00 | 0.00 | 81 | 1011.2 |
| 20260509005814 | 13 | 180 | 1.6 | 1.6 | 0.00 | 0.00 | 0.00 | 81 | 1011.2 |
| 20260509005313 | 13 | 183 | 0.0 | 1.6 | 0.00 | 0.00 | 0.00 | 81 | 1011.2 |
| 20260509004811 | 13 | 186 | 0.0 | 1.6 | 0.00 | 0.00 | 0.00 | 80 | 1011.2 |
| 20260509004310 | 13 | 186 | 1.6 | 1.6 | 0.00 | 0.00 | 0.00 | 81 | 1011.2 |
| 20260509003808 | 13 | 185 | 0.0 | 1.6 | 0.00 | 0.00 | 0.00 | 80 | 1011.2 |
| 20260509003307 | 14 | 186 | 0.0 | 1.6 | 0.00 | 0.00 | 0.00 | 79 | 1011.2 |
| 20260509002805 | 14 | 187 | 0.0 | 1.6 | 0.00 | 0.00 | 0.00 | 79 | 1011.2 |
| 20260509002306 | 15 | 187 | 0.0 | 1.6 | 0.00 | 0.00 | 0.00 | 79 | 1011.2 |
| 20260509001659 | 15 | 187 | 0.0 | 1.6 | 0.00 | 0.00 | 0.00 | 77 | 1011.2 |
| 20260509001157 | 15 | 187 | 0.0 | 1.6 | 0.00 | 0.00 | 0.00 | 75 | 1011.5 |
| 20260509000656 | 16 | 187 | 0.0 | 0.0 | 0.00 | 0.00 | 0.00 | 73 | 1011.2 |
| 20260509000155 | 16 | 187 | 0.0 | 0.0 | 0.00 | 0.00 | 0.00 | 72 | 1011.2 |
| 20260508235653 | 16 | 187 | 0.0 | 1.6 | 0.00 | 0.00 | 0.00 | 70 | 1011.2 |
| 20260508235151 | 17 | 187 | 0.0 | 1.6 | 0.00 | 0.00 | 0.00 | 67 | 1011.2 |
| 20260508234649 | 17 | 187 | 0.0 | 1.6 | 0.00 | 0.00 | 0.00 | 64 | 1011.5 |
| 20260508234148 | 17 | 187 | 0.0 | 6.4 | 0.00 | 0.00 | 0.00 | 59 | 1011.5 |
| 20260508233647 | 18 | 224 | 1.6 | 6.4 | 0.00 | 0.00 | 0.00 | 56 | 1011.5 |
| 20260508233146 | 18 | 245 | 0.0 | 6.4 | 0.00 | 0.00 | 0.00 | 56 | 1011.5 |
| 20260508232644 | 18 | 205 | 3.2 | 6.4 | 0.00 | 0.00 | 0.00 | 56 | 1011.5 |
| 20260508232037 | 19 | 181 | 0.0 | 3.2 | 0.00 | 0.00 | 0.00 | 52 | 1011.5 |
| 20260508231505 | 19 | 273 | 0.0 | 11.3 | 0.00 | 0.00 | 0.00 | 53 | 1011.5 |
| 20260508231004 | 19 | 208 | 1.6 | 11.3 | 0.00 | 0.00 | 0.00 | 53 | 1011.5 |
| 20260508230502 | 20 | 232 | 1.6 | 11.3 | 0.00 | 0.00 | 0.00 | 50 | 1011.5 |
| 20260508230001 | 20 | 231 | 4.8 | 11.3 | 0.00 | 0.00 | 0.00 | 47 | 1011.5 |
| 20260508225459 | 20 | 235 | 1.6 | 8.0 | 0.00 | 0.00 | 0.00 | 47 | 1011.5 |
| 20260508224958 | 20 | 230 | 3.2 | 6.4 | 0.00 | 0.00 | 0.00 | 46 | 1011.5 |
| 20260508224457 | 20 | 230 | 3.2 | 6.4 | 0.00 | 0.00 | 0.00 | 47 | 1011.5 |
| 20260508223955 | 20 | 234 | 3.2 | 4.8 | 0.00 | 0.00 | 0.00 | 47 | 1011.5 |
| 20260508223454 | 20 | 262 | 1.6 | 3.2 | 0.00 | 0.00 | 0.00 | 51 | 1011.5 |
| 20260508222953 | 20 | 247 | 1.6 | 3.2 | 0.00 | 0.00 | 0.00 | 47 | 1011.5 |
| 20260508222450 | 20 | 259 | 0.0 | 3.2 | 0.00 | 0.00 | 0.00 | 48 | 1011.5 |
| 20260508221949 | 20 | 244 | 1.6 | 6.4 | 0.00 | 0.00 | 0.00 | 45 | 1011.5 |
| 20260508221448 | 20 | 266 | 1.6 | 6.4 | 0.00 | 0.00 | 0.00 | 48 | 1011.5 |
| 20260508220947 | 20 | 269 | 1.6 | 6.4 | 0.00 | 0.00 | 0.00 | 44 | 1011.5 |
| 20260508220413 | 21 | 228 | 3.2 | 6.4 | 0.00 | 0.00 | 0.00 | 43 | 1011.5 |
| 20260508215912 | 21 | 302 | 1.6 | 6.4 | 0.00 | 0.00 | 0.00 | 48 | 1011.5 |
| 20260508215410 | 21 | 299 | 1.6 | 6.4 | 0.00 | 0.00 | 0.00 | 45 | 1011.5 |
| 20260508214807 | 21 | 142 | 1.6 | 11.3 | 0.00 | 0.00 | 0.00 | 42 | 1011.9 |
| 20260508214233 | 21 | 270 | 3.2 | 12.9 | 0.00 | 0.00 | 0.00 | 40 | 1011.9 |
| 20260508213731 | 21 | 309 | 1.6 | 12.9 | 0.00 | 0.00 | 0.00 | 42 | 1011.9 |
| 20260508213229 | 21 | 264 | 3.2 | 11.3 | 0.00 | 0.00 | 0.00 | 40 | 1011.9 |
| 20260508212728 | 21 | 276 | 1.6 | 12.9 | 0.00 | 0.00 | 0.00 | 40 | 1011.9 |
| 20260508212226 | 21 | 220 | 6.4 | 12.9 | 0.00 | 0.00 | 0.00 | 39 | 1011.9 |
| 20260508211724 | 22 | 248 | 4.8 | 11.3 | 0.00 | 0.00 | 0.00 | 38 | 1011.9 |
| 20260508211223 | 22 | 219 | 3.2 | 11.3 | 0.00 | 0.00 | 0.00 | 39 | 1011.9 |
| 20260508210722 | 22 | 248 | 3.2 | 8.0 | 0.00 | 0.00 | 0.00 | 41 | 1012.2 |
| 20260508210148 | 22 | 108 | 4.8 | 9.7 | 0.00 | 0.00 | 0.00 | 46 | 1011.9 |
| 20260508205647 | 22 | 235 | 4.8 | 11.3 | 0.00 | 0.00 | 0.00 | 42 | 1011.9 |